Morrisville, VT

2:56 PM EST on November 20, 2019 (GMT -0500)
Morrisville Stowe State

Weather History for KMVL - October, 2019

Change the Weather History Date:

Monday, October 21, 2019

  Actual Average Record
Temperature  
Mean Temperature 48 °F 44 °F  
Max Temperature 64 °F 54 °F 73 °F (2007)
Min Temperature 30 °F 33 °F 25 °F (2002)
Degree Days  
Heating Degree Days 18 21  
Month to date heating degree days 369 370  
Since 1 July heating degree days 659 702  
Cooling Degree Days 0 0  
Month to date cooling degree days 0 0  
Year to date cooling degree days 254 265  
Moisture  
Dew Point 36 °F    
Average Humidity 88    
Maximum Humidity 100    
Minimum Humidity 50    
Precipitation  
Precipitation 0.00 in 0.08 in 1.83 in (2003)
Month to date precipitation 4.98 2.13  
Year to date precipitation 35.54 29.26  
Sea Level Pressure  
Sea Level Pressure 30.14 in    
Wind  
Wind Speed 1 mph ()    
Max Wind Speed 7 mph    
Max Gust Speed 9 mph    
Visibility 5.5 miles    
Events Fog    
T = Trace of Precipitation, MM = Missing Value Source: Averaged Metar Reports

Daily Weather History Graph

Daily Weather History Graph

Search for Another Location

Airport or City:

Astronomy

Oct. 21, 2019 Rise Set
Actual Time 7:13 AM EDT 5:56 PM EDT
Civil Twilight 6:43 AM EDT 6:26 PM EDT
Nautical Twilight 6:09 AM EDT 6:59 PM EDT
Astronomical Twilight 5:35 AM EDT 7:33 PM EDT
Moon No Moon Rise 2:37 PM EDT (10/21)
Length of Visible Light 11h 42m
Length of Day
10h 43m
Waning Gibbous, 48% of the Moon is Illuminated
Oct 21
Waning Gibbous
Oct 27
New
Nov 4
First Quarter
Nov 12
Full
Nov 19
Last Quarter

Hourly Weather History & Observations

Time (EDT) Temp. Windchill Dew Point Humidity Pressure Visibility Wind Dir Wind Speed Gust Speed Precip Events Conditions
12:54 AM 33.1 °F - 30.9 °F 92% 30.09 in 10.0 mi Calm Calm - N/A   Clear
1:54 AM 32.0 °F - 30.9 °F 96% 30.11 in 10.0 mi Calm Calm - N/A   Clear
2:05 AM 33.1 °F - 32.0 °F 96% 30.08 in 10.0 mi Calm Calm - N/A   Partly Cloudy
2:41 AM 32.0 °F - 30.0 °F 92% 30.09 in 5.0 mi Calm Calm - N/A   Mostly Cloudy
2:54 AM 32.0 °F - 30.0 °F 92% 30.12 in 4.0 mi Calm Calm - N/A   Mostly Cloudy
3:06 AM 30.9 °F 26.2 °F 30.0 °F 96% 30.09 in 1.5 mi SSW 4.6 mph - N/A   Mostly Cloudy
3:10 AM 30.9 °F 26.2 °F 30.0 °F 96% 30.10 in 0.8 mi SSW 4.6 mph - N/A   Mist
3:18 AM 30.9 °F 27.5 °F 30.9 °F 100% 30.10 in 1.2 mi SW 3.5 mph - N/A   Mostly Cloudy
3:30 AM 32.0 °F - 32.0 °F 100% 30.10 in 0.8 mi Calm Calm - N/A   Mist
3:54 AM 32.0 °F - 30.9 °F 96% 30.12 in 0.5 mi Calm Calm - N/A Fog Fog
4:28 AM 32.0 °F - 30.9 °F 96% 30.10 in 1.2 mi Calm Calm - N/A   Overcast
4:40 AM 32.0 °F - 30.9 °F 96% 30.11 in 3.0 mi Calm Calm - N/A   Overcast
4:51 AM 32.0 °F - 30.2 °F 93% 30.11 in 1.8 mi Calm Calm - N/A   Overcast
4:54 AM 32.0 °F - 30.9 °F 96% 30.14 in 1.2 mi Calm Calm - N/A   Overcast
4:58 AM 32.0 °F - 32.0 °F 100% 30.12 in 0.8 mi Calm Calm - N/A   Mist
5:54 AM 32.0 °F - 32.0 °F 100% 30.16 in 0.5 mi Calm Calm - N/A Fog Fog
6:54 AM 32.0 °F - 32.0 °F 100% 30.17 in 0.2 mi Calm Calm - N/A Fog Fog
7:54 AM 32.0 °F - 32.0 °F 100% 30.19 in 0.2 mi Calm Calm - N/A Fog Fog
8:54 AM 34.0 °F - 34.0 °F 100% 30.19 in 0.2 mi Calm Calm - N/A Fog Fog
9:54 AM 37.0 °F 34.5 °F 36.0 °F 96% 30.19 in 0.2 mi SSE 3.5 mph - N/A Fog Fog
10:48 AM 42.8 °F 40.1 °F 39.2 °F 87% 30.17 in 1.2 mi South 4.6 mph - N/A   Overcast
10:54 AM 41.0 °F - 41.0 °F 100% 30.20 in 3.0 mi Calm Calm - N/A   Overcast
11:27 AM 45.0 °F - 43.0 °F 93% 30.16 in 10.0 mi Calm Calm - N/A   Scattered Clouds
11:54 AM 52.0 °F - 45.0 °F 77% 30.18 in 10.0 mi Calm Calm - N/A   Clear
12:54 PM 59.0 °F - 43.0 °F 55% 30.16 in 10.0 mi Calm Calm - N/A   Clear
1:54 PM 62.1 °F - 44.1 °F 52% 30.14 in 10.0 mi NNE 4.6 mph - N/A   Clear
2:54 PM 63.0 °F - 44.1 °F 50% 30.12 in 10.0 mi Variable 3.5 mph - N/A   Clear
3:54 PM 64.0 °F - 45.0 °F 50% 30.12 in 10.0 mi NW 3.5 mph - N/A   Clear
4:54 PM 63.0 °F - 44.1 °F 50% 30.14 in 10.0 mi North 3.5 mph - N/A   Clear
5:54 PM 53.1 °F - 42.1 °F 66% 30.15 in 10.0 mi Calm Calm - N/A   Clear
6:54 PM 48.0 °F - 41.0 °F 77% 30.18 in 10.0 mi Calm Calm - N/A   Clear
7:54 PM 42.1 °F - 39.0 °F 89% 30.18 in 10.0 mi Calm Calm - N/A   Clear
8:54 PM 37.9 °F - 36.0 °F 93% 30.19 in 10.0 mi Calm Calm - N/A   Clear
9:54 PM 37.0 °F - 35.1 °F 93% 30.19 in 10.0 mi Calm Calm - N/A   Clear
10:54 PM 35.1 °F - 34.0 °F 96% 30.17 in 10.0 mi Calm Calm - N/A   Clear
11:54 PM 35.1 °F - 34.0 °F 96% 30.18 in 10.0 mi Calm Calm - N/A   Clear